Location: *
(50.2903°S, 172.5375°W)
Time: 21:23:44
(UTC+00:00)

ALOS 2 - Pass Details

Date: 17 November 2019
Orbit: 630 x 632 km, 97.9° (Epoch: 07 December)

Event Time Altitude Azimuth Distance (km) Brightness Sun altitude
Rises 12:30:06 0° 171° (S) 2,973 7.7 -18.8°
Reaches altitude 10° 12:32:22 10° 175° (S) 2,057 6.4 -18.7°
Maximum altitude 12:36:41 49° 249° (WSW) 831 3.1 -18.4°
Enters shadow 12:38:21 32° 304° (NW) 1,099 3.4 -18.3°
